Time,TemperatureF,DewpointF,PressureIn,WindDirection,WindDirectionDegrees,WindSpeedMPH,WindSpeedGustMPH,Humidity,HourlyPrecipIn,Conditions,Clouds,dailyrainin,SoftwareType,DateUTC
2013-04-10 00:05:00,6.1,1.0,29.48,ESE,117,0.0,0.0,80,0.00,,,0.00,weatherlink.com 1.10,2013-04-10 08:05:00,
2013-04-10 00:20:00,5.8,1.0,29.50,ESE,117,0.0,0.0,81,0.00,,,0.00,weatherlink.com 1.10,2013-04-10 08:20:00,
2013-04-10 00:35:00,5.6,1.0,29.51,SSE,164,0.0,0.0,80,0.00,,,0.00,weatherlink.com 1.10,2013-04-10 08:35:00,
2013-04-10 00:50:00,5.1,1.0,29.51,ESE,102,0.0,0.0,81,0.00,,,0.00,weatherlink.com 1.10,2013-04-10 08:50:00,
2013-04-10 01:05:00,4.8,0.0,29.52,SSE,153,0.0,0.0,81,0.00,,,0.00,weatherlink.com 1.10,2013-04-10 09:05:00,
2013-04-10 01:20:00,4.8,0.0,29.54,WNW,303,0.0,0.0,80,0.00,,,0.00,weatherlink.com 1.10,2013-04-10 09:20:00,
2013-04-10 01:35:00,4.8,0.0,29.55,West,279,0.0,0.0,80,0.00,,,0.00,weatherlink.com 1.10,2013-04-10 09:35:00,
2013-04-10 01:50:00,4.4,0.0,29.56,WNW,286,0.0,0.0,81,0.00,,,0.00,weatherlink.com 1.10,2013-04-10 09:50:00,
2013-04-10 02:05:00,4.3,0.0,29.57,East,79,0.0,0.0,81,0.00,,,0.00,weatherlink.com 1.10,2013-04-10 10:05:00,
2013-04-10 02:20:00,4.2,0.0,29.58,ENE,72,0.0,0.0,81,0.00,,,0.00,weatherlink.com 1.10,2013-04-10 10:20:00,
2013-04-10 02:35:00,4.0,-1.0,29.59,SE,127,0.0,0.0,81,0.00,,,0.00,weatherlink.com 1.10,2013-04-10 10:35:00,
2013-04-10 02:50:00,3.6,-1.0,29.60,SE,127,0.0,0.0,80,0.00,,,0.00,weatherlink.com 1.10,2013-04-10 10:50:00,
2013-04-10 03:05:00,3.0,-2.0,29.61,East,101,0.0,0.0,81,0.00,,,0.00,weatherlink.com 1.10,2013-04-10 11:05:00,
2013-04-10 03:20:00,2.8,-2.0,29.61,WNW,302,0.0,0.0,81,0.00,,,0.00,weatherlink.com 1.10,2013-04-10 11:20:00,
2013-04-10 03:35:00,2.7,-2.0,29.62,SE,140,0.0,0.0,81,0.00,,,0.00,weatherlink.com 1.10,2013-04-10 11:35:00,
2013-04-10 03:50:00,2.8,-2.0,29.63,East,91,0.0,0.0,81,0.00,,,0.00,weatherlink.com 1.10,2013-04-10 11:50:00,
2013-04-10 04:05:00,2.7,-2.0,29.63,WSW,252,0.0,0.0,80,0.00,,,0.00,weatherlink.com 1.10,2013-04-10 12:05:00,
2013-04-10 04:21:00,2.5,-2.0,29.64,WNW,302,0.0,0.0,81,0.00,,,0.00,weatherlink.com 1.10,2013-04-10 12:21:00,
2013-04-10 04:36:00,2.4,-2.0,29.65,East,94,0.0,0.0,81,0.00,,,0.00,weatherlink.com 1.10,2013-04-10 12:36:00,
2013-04-10 04:51:00,2.2,-2.0,29.65,East,94,0.0,0.0,81,0.00,,,0.00,weatherlink.com 1.10,2013-04-10 12:51:00,
2013-04-10 05:36:00,1.6,-3.0,29.66,SSE,149,0.0,0.0,81,0.00,,,0.00,weatherlink.com 1.10,2013-04-10 13:36:00,
2013-04-10 05:51:00,1.5,-3.0,29.68,SSE,153,0.0,0.0,80,0.00,,,0.00,weatherlink.com 1.10,2013-04-10 13:51:00,
2013-04-10 06:06:00,1.3,-4.0,29.68,South,184,0.0,0.0,80,0.00,,,0.00,weatherlink.com 1.10,2013-04-10 14:06:00,
2013-04-10 06:21:00,0.9,-4.0,29.69,South,184,0.0,0.0,80,0.00,,,0.00,weatherlink.com 1.10,2013-04-10 14:21:00,
2013-04-10 06:36:00,0.6,-4.0,29.70,South,183,0.0,0.0,80,0.00,,,0.00,weatherlink.com 1.10,2013-04-10 14:36:00,
2013-04-10 06:51:00,0.1,-5.0,29.70,SW,224,0.0,0.0,80,0.00,,,0.00,weatherlink.com 1.10,2013-04-10 14:51:00,
2013-04-10 07:06:00,-0.1,-5.0,29.71,SW,224,0.0,0.0,80,0.00,,,0.00,weatherlink.com 1.10,2013-04-10 15:06:00,
2013-04-10 07:36:00,-0.2,-5.0,29.73,SSE,149,0.0,0.0,80,0.00,,,0.00,weatherlink.com 1.10,2013-04-10 15:36:00,
2013-04-10 07:52:00,0.2,-5.0,29.73,SSE,149,0.0,0.0,79,0.00,,,0.00,weatherlink.com 1.10,2013-04-10 15:52:00,
2013-04-10 08:07:00,0.2,-5.0,29.74,SSE,149,0.0,0.0,79,0.00,,,0.00,weatherlink.com 1.10,2013-04-10 16:07:00,
2013-04-10 08:22:00,1.1,-5.0,29.75,SE,140,0.0,0.0,77,0.00,,,0.00,weatherlink.com 1.10,2013-04-10 16:22:00,
2013-04-10 08:37:00,1.5,-4.0,29.75,SSE,150,0.0,0.0,76,0.00,,,0.00,weatherlink.com 1.10,2013-04-10 16:37:00,
2013-04-10 08:52:00,1.9,-4.0,29.76,SSE,163,0.0,0.0,75,0.00,,,0.00,weatherlink.com 1.10,2013-04-10 16:52:00,
2013-04-10 09:07:00,2.2,-4.0,29.76,SSW,212,0.0,2.0,74,0.00,,,0.00,weatherlink.com 1.10,2013-04-10 17:07:00,
2013-04-10 09:22:00,3.1,-4.0,29.77,SSE,161,0.0,1.0,72,0.00,,,0.00,weatherlink.com 1.10,2013-04-10 17:22:00,
2013-04-10 09:37:00,4.0,-4.0,29.77,WSW,258,0.0,3.0,71,0.00,,,0.00,weatherlink.com 1.10,2013-04-10 17:37:00,
2013-04-10 09:52:00,4.6,-4.0,29.78,SE,135,0.0,4.0,69,0.00,,,0.00,weatherlink.com 1.10,2013-04-10 17:52:00,
2013-04-10 10:07:00,5.0,-3.0,29.78,SSE,151,1.0,5.0,68,0.00,,,0.00,weatherlink.com 1.10,2013-04-10 18:07:00,
2013-04-10 10:22:00,5.4,-4.0,29.79,SW,226,0.0,4.0,66,0.00,,,0.00,weatherlink.com 1.10,2013-04-10 18:22:00,
2013-04-10 10:37:00,6.5,-3.0,29.80,SSE,153,0.0,4.0,65,0.00,,,0.00,weatherlink.com 1.10,2013-04-10 18:37:00,
2013-04-10 10:52:00,7.6,-2.0,29.80,South,184,0.0,2.0,65,0.00,,,0.00,weatherlink.com 1.10,2013-04-10 18:52:00,
2013-04-10 11:08:00,8.5,-3.0,29.81,SSE,162,1.0,4.0,61,0.00,,,0.00,weatherlink.com 1.10,2013-04-10 19:08:00,
2013-04-10 11:23:00,8.3,-3.0,29.81,SSE,153,0.0,4.0,61,0.00,,,0.00,weatherlink.com 1.10,2013-04-10 19:23:00,
2013-04-10 11:38:00,9.3,-1.0,29.81,NW,304,0.0,2.0,64,0.00,,,0.00,weatherlink.com 1.10,2013-04-10 19:38:00,
2013-04-10 11:53:00,9.7,-2.0,29.82,SSE,168,1.0,6.0,59,0.00,,,0.00,weatherlink.com 1.10,2013-04-10 19:53:00,
2013-04-10 12:08:00,10.3,-1.0,29.82,SSE,164,2.0,3.0,60,0.00,,,0.00,weatherlink.com 1.10,2013-04-10 20:08:00,
2013-04-10 12:23:00,10.0,-3.0,29.82,WNW,286,0.0,4.0,57,0.00,,,0.00,weatherlink.com 1.10,2013-04-10 20:23:00,
2013-04-10 12:38:00,10.0,-2.0,29.83,West,276,0.0,3.0,59,0.00,,,0.00,weatherlink.com 1.10,2013-04-10 20:38:00,
2013-04-10 12:54:00,10.0,-1.0,29.83,West,281,0.0,2.0,61,0.00,,,0.00,weatherlink.com 1.10,2013-04-10 20:54:00,
2013-04-10 13:08:00,10.3,0.0,29.84,ESE,120,1.0,6.0,63,0.00,,,0.00,weatherlink.com 1.10,2013-04-10 21:08:00,
2013-04-10 13:23:00,10.5,2.0,29.84,SSE,148,1.0,7.0,67,0.00,,,0.00,weatherlink.com 1.10,2013-04-10 21:23:00,
2013-04-10 13:38:00,10.3,2.0,29.84,WNW,283,0.0,4.0,70,0.00,,,0.00,weatherlink.com 1.10,2013-04-10 21:38:00,
2013-04-10 13:53:00,9.8,1.0,29.85,South,188,0.0,3.0,66,0.00,,,0.00,weatherlink.com 1.10,2013-04-10 21:53:00,
2013-04-10 14:08:00,11.1,0.0,29.85,WSW,241,0.0,3.0,60,0.00,,,0.00,weatherlink.com 1.10,2013-04-10 22:08:00,
2013-04-10 14:23:00,12.2,-2.0,29.85,West,260,0.0,4.0,54,0.00,,,0.00,weatherlink.com 1.10,2013-04-10 22:23:00,
2013-04-10 14:39:00,13.4,-1.0,29.86,SSE,158,0.0,5.0,53,0.00,,,0.00,weatherlink.com 1.10,2013-04-10 22:39:00,
2013-04-10 14:54:00,13.2,-2.0,29.86,South,180,3.0,4.0,51,0.00,,,0.00,weatherlink.com 1.10,2013-04-10 22:54:00,
2013-04-10 15:09:00,13.3,-3.0,29.86,WNW,283,1.0,4.0,48,0.00,,,0.00,weatherlink.com 1.10,2013-04-10 23:09:00,
2013-04-10 15:24:00,14.4,-2.0,29.86,ESE,119,8.0,8.0,48,0.00,,,0.00,weatherlink.com 1.10,2013-04-10 23:24:00,
2013-04-10 15:39:00,13.9,-3.0,29.86,North,3,0.0,4.0,47,0.00,,,0.00,weatherlink.com 1.10,2013-04-10 23:39:00,
2013-04-10 15:54:00,14.5,-3.0,29.86,SSE,160,1.0,4.0,46,0.00,,,0.00,weatherlink.com 1.10,2013-04-10 23:54:00,
2013-04-10 16:09:00,14.4,-3.0,29.86,SSE,158,2.0,5.0,46,0.00,,,0.00,weatherlink.com 1.10,2013-04-11 00:09:00,
2013-04-10 16:24:00,14.6,-3.0,29.87,SSE,162,0.0,6.0,46,0.00,,,0.00,weatherlink.com 1.10,2013-04-11 00:24:00,
2013-04-10 16:39:00,14.5,-3.0,29.87,NNW,334,1.0,4.0,46,0.00,,,0.00,weatherlink.com 1.10,2013-04-11 00:39:00,
2013-04-10 16:54:00,14.5,-3.0,29.87,NW,311,2.0,6.0,46,0.00,,,0.00,weatherlink.com 1.10,2013-04-11 00:54:00,
2013-04-10 17:09:00,15.2,-2.0,29.87,West,269,0.0,3.0,46,0.00,,,0.00,weatherlink.com 1.10,2013-04-11 01:09:00,
2013-04-10 17:24:00,15.1,-3.0,29.87,WSW,237,0.0,7.0,45,0.00,,,0.00,weatherlink.com 1.10,2013-04-11 01:24:00,
2013-04-10 17:39:00,14.1,-4.0,29.88,West,276,1.0,4.0,45,0.00,,,0.00,weatherlink.com 1.10,2013-04-11 01:39:00,
2013-04-10 17:55:00,13.7,-4.0,29.88,West,266,0.0,5.0,46,0.00,,,0.00,weatherlink.com 1.10,2013-04-11 01:55:00,
2013-04-10 18:10:00,13.4,-4.0,29.88,WNW,283,3.0,5.0,47,0.00,,,0.00,weatherlink.com 1.10,2013-04-11 02:10:00,
2013-04-10 18:40:00,13.2,-4.0,29.89,West,259,0.0,4.0,47,0.00,,,0.00,weatherlink.com 1.10,2013-04-11 02:40:00,
2013-04-10 18:55:00,12.4,-4.0,29.89,West,277,0.0,4.0,49,0.00,,,0.00,weatherlink.com 1.10,2013-04-11 02:55:00,
2013-04-10 19:10:00,11.5,-4.0,29.89,SSE,164,0.0,3.0,51,0.00,,,0.00,weatherlink.com 1.10,2013-04-11 03:10:00,
2013-04-10 19:40:00,10.7,-4.0,29.89,SW,221,0.0,2.0,53,0.00,,,0.00,weatherlink.com 1.10,2013-04-11 03:40:00,
2013-04-10 19:55:00,10.0,-3.0,29.90,NE,42,0.0,2.0,56,0.00,,,0.00,weatherlink.com 1.10,2013-04-11 03:55:00,
2013-04-10 20:11:00,9.3,-3.0,29.91,NW,314,0.0,1.0,57,0.00,,,0.00,weatherlink.com 1.10,2013-04-11 04:11:00,
2013-04-10 20:26:00,8.2,-3.0,29.91,WSW,257,0.0,0.0,60,0.00,,,0.00,weatherlink.com 1.10,2013-04-11 04:26:00,
2013-04-10 20:41:00,6.7,-4.0,29.92,NW,310,0.0,0.0,62,0.00,,,0.00,weatherlink.com 1.10,2013-04-11 04:41:00,
2013-04-10 21:56:00,1.5,-6.0,29.95,East,91,0.0,1.0,71,0.00,,,0.00,weatherlink.com 1.10,2013-04-11 05:56:00,
2013-04-10 22:11:00,0.5,-7.0,29.95,East,91,0.0,0.0,71,0.00,,,0.00,weatherlink.com 1.10,2013-04-11 06:11:00,
2013-04-10 22:26:00,0.2,-7.0,29.96,East,91,0.0,1.0,72,0.00,,,0.00,weatherlink.com 1.10,2013-04-11 06:26:00,
2013-04-10 22:56:00,-0.4,-7.0,29.97,NNE,32,0.0,0.0,72,0.00,,,0.00,weatherlink.com 1.10,2013-04-11 06:56:00,
2013-04-10 23:12:00,-1.1,-8.0,29.98,NNE,32,0.0,1.0,73,0.00,,,0.00,weatherlink.com 1.10,2013-04-11 07:12:00,
2013-04-10 23:27:00,-1.4,-8.0,29.98,NNE,32,0.0,1.0,73,0.00,,,0.00,weatherlink.com 1.10,2013-04-11 07:27:00,
2013-04-10 23:42:00,-2.5,-9.0,29.99,NNE,32,0.0,0.0,73,0.00,,,0.00,weatherlink.com 1.10,2013-04-11 07:42:00,
2013-04-10 23:57:00,-2.9,-9.0,30.00,NNE,32,0.0,0.0,74,0.00,,,0.00,weatherlink.com 1.10,2013-04-11 07:57:00,